Date String (YYYY-MM-DD hh:mm:ss) UTC,Instrument flags,Ambient pressure (hPa),Sample flow (lpm),Bypass flow (lpm),Sample temperature (°C),Ambient temperature (°C),ASC tube jacket temperature (°C),LED temperature (°C),Box temperature (°C),Sample RH (%),Span deviation,Mass concentration (μg/m³),Mass concentration (μg/m³),Mass concentration (μg/m³)
DateTimeUTC,F1_M11,P_M11,Q1_M11,Q2_M11,T1_M11,T2_M11,T3_M11,T4_M11,T5_M11,U1_M11,ZSPAN_M11,X0_M11,X2_M11,X1_M11
2021-08-28 03:00:00,,0824.1,5.01,0.00,29.0,26.7,00.0,38.2,30.7,20.9,0001.4,0011.32,0004.94,0004.39
2021-08-28 03:01:00,,0824.1,4.99,0.00,29.0,27.1,00.0,38.2,30.8,20.7,0001.6,0011.13,0004.91,0004.39
2021-08-28 03:02:00,,0824.1,5.00,0.00,29.1,27.4,00.0,38.2,30.9,20.4,0001.4,0010.76,0004.94,0004.40
2021-08-28 03:03:00,,0824.1,5.00,0.00,29.1,27.7,00.0,38.2,30.9,19.9,0001.2,0010.80,0004.93,0004.40
2021-08-28 03:04:00,,0824.1,5.01,0.00,29.1,28.0,00.0,38.2,31.0,20.0,0001.3,0010.75,0004.92,0004.39
2021-08-28 03:05:00,,0824.1,5.00,0.00,29.2,28.2,00.0,38.2,31.1,19.9,0001.8,0011.04,0004.95,0004.40
2021-08-28 03:06:00,,0824.1,4.99,0.00,29.2,28.3,00.0,38.2,31.1,19.8,0002.1,0010.98,0004.93,0004.39
2021-08-28 03:07:00,,0824.0,5.01,0.00,29.3,28.5,00.0,38.2,31.2,19.6,0002.1,0011.27,0004.94,0004.38
2021-08-28 03:08:00,,0824.1,4.99,0.00,29.4,28.6,00.0,38.3,31.3,19.5,0002.1,0011.32,0004.86,0004.36
2021-08-28 03:09:00,,0824.1,5.00,0.00,29.4,28.5,00.0,38.3,31.3,19.7,0002.0,0011.05,0004.87,0004.35
2021-08-28 03:10:00,,0824.1,5.00,0.00,29.3,26.8,00.0,38.3,30.9,20.2,0002.2,0010.95,0004.87,0004.35
2021-08-28 03:11:00,,0824.1,5.00,0.00,29.2,25.4,00.0,38.3,30.5,20.6,0002.4,0010.80,0004.86,0004.34
2021-08-28 03:12:00,,0824.1,5.00,0.00,29.1,25.5,00.0,38.3,30.4,20.8,0002.3,0010.44,0004.84,0004.33
2021-08-28 03:13:00,,0824.1,4.99,0.00,29.0,26.0,00.0,38.2,30.5,21.1,0002.3,0010.38,0004.83,0004.32
2021-08-28 03:14:00,,0824.1,5.01,0.00,29.0,26.5,00.0,38.2,30.6,21.0,0002.4,0010.71,0004.83,0004.33
2021-08-28 03:15:00,,0824.1,5.01,0.00,29.0,26.9,00.0,38.1,30.7,21.1,0002.2,0010.58,0004.82,0004.34
2021-08-28 03:16:00,,0824.1,4.99,0.00,29.0,27.3,00.0,38.1,30.8,21.0,0001.9,0010.81,0004.82,0004.34
2021-08-28 03:17:00,,0824.1,4.99,0.00,29.1,27.6,00.0,38.1,30.9,20.6,0001.4,0010.63,0004.86,0004.35
2021-08-28 03:18:00,,0824.1,5.00,0.00,29.1,27.8,00.0,38.2,31.0,20.2,0001.3,0010.22,0004.85,0004.34
2021-08-28 03:19:00,,0824.1,5.00,0.00,29.2,28.0,00.0,38.2,31.0,19.9,0001.1,0010.01,0004.86,0004.36
2021-08-28 03:20:00,,0824.1,5.00,0.00,29.2,28.2,00.0,38.2,31.1,20.1,0001.0,0010.10,0004.85,0004.35
2021-08-28 03:21:00,,0824.1,4.99,0.00,29.2,28.3,00.0,38.2,31.1,20.1,0000.6,0010.94,0004.86,0004.36
2021-08-28 03:22:00,,0824.1,5.00,0.00,29.3,28.5,00.0,38.2,31.2,20.0,0000.5,0011.75,0004.88,0004.37
2021-08-28 03:23:00,,0824.1,5.00,0.00,29.3,28.6,00.0,38.3,31.2,20.2,0000.2,0012.31,0004.90,0004.38
2021-08-28 03:24:00,,0824.1,4.99,0.00,29.4,28.7,00.0,38.3,31.3,20.0,0000.1,0012.18,0004.86,0004.37
2021-08-28 03:25:00,,0824.1,5.01,0.00,29.4,28.5,00.0,38.3,31.3,19.8,0000.0,0011.79,0004.85,0004.38
2021-08-28 03:26:00,,0824.1,5.00,0.00,29.4,26.9,00.0,38.3,30.9,19.9,-000.0,0011.88,0004.87,0004.38
2021-08-28 03:27:00,,0824.1,4.99,0.00,29.2,26.3,00.0,38.3,30.7,19.8,0000.3,0012.02,0004.87,0004.38
2021-08-28 03:28:00,,0824.1,5.00,0.00,29.2,26.6,00.0,38.3,30.8,19.7,0000.5,0012.17,0004.84,0004.38
2021-08-28 03:29:00,,0824.1,5.00,0.00,29.1,26.9,00.0,38.3,30.8,19.8,0000.6,0012.12,0004.83,0004.38
2021-08-28 03:30:00,,0824.1,5.01,0.00,29.2,27.3,00.0,38.3,30.9,19.8,0000.9,0011.95,0004.84,0004.37
2021-08-28 03:31:00,,0824.1,4.99,0.00,29.2,27.6,00.0,38.3,31.0,19.8,0001.0,0011.42,0004.85,0004.38
2021-08-28 03:32:00,,0824.1,4.99,0.00,29.3,27.9,00.0,38.3,31.1,19.5,0000.6,0010.86,0004.86,0004.39
2021-08-28 03:33:00,,0824.1,5.01,0.00,29.3,28.1,00.0,38.3,31.1,19.6,0000.3,0010.44,0004.87,0004.39
2021-08-28 03:34:00,,0824.2,4.99,0.00,29.3,28.3,00.0,38.3,31.2,19.6,0000.3,0011.34,0004.87,0004.40
2021-08-28 03:35:00,,0824.2,4.99,0.00,29.4,28.5,00.0,38.3,31.3,19.5,0000.3,0012.01,0004.88,0004.41
2021-08-28 03:36:00,,0824.2,5.01,0.00,29.4,28.6,00.0,38.4,31.3,19.4,0000.4,0012.01,0004.89,0004.40
2021-08-28 03:37:00,,0824.3,5.00,0.00,29.5,28.7,00.0,38.4,31.4,19.9,0000.5,0013.03,0004.88,0004.41
2021-08-28 03:38:00,,0824.2,5.01,0.00,29.5,27.4,00.0,38.4,31.1,21.1,0000.4,0013.24,0004.91,0004.42
2021-08-28 03:39:00,,0824.2,5.00,0.00,29.3,25.6,00.0,38.4,30.6,21.4,0000.5,0013.45,0004.92,0004.42
2021-08-28 03:40:00,,0824.2,5.00,0.00,29.2,25.5,00.0,38.4,30.5,21.7,0000.5,0014.63,0004.94,0004.43
2021-08-28 03:41:00,,0824.2,5.01,0.00,29.1,25.9,00.0,38.3,30.6,21.8,0000.4,0015.05,0004.95,0004.45
2021-08-28 03:42:00,,0824.2,5.00,0.00,29.1,26.4,00.0,38.3,30.7,21.4,0000.4,0015.33,0004.95,0004.45
2021-08-28 03:43:00,,0824.2,5.00,0.00,29.1,26.9,00.0,38.3,30.8,20.7,0000.5,0015.22,0004.93,0004.46
2021-08-28 03:44:00,,0824.2,4.99,0.00,29.1,27.2,00.0,38.2,30.9,20.9,0000.9,0014.88,0004.92,0004.46
2021-08-28 03:45:00,,0824.3,5.01,0.00,29.1,27.6,00.0,38.2,30.9,20.8,0000.8,0013.97,0004.93,0004.46
2021-08-28 03:46:00,,0824.4,4.99,0.00,29.2,27.8,00.0,38.3,31.0,20.5,0000.8,0013.79,0004.96,0004.45
2021-08-28 03:47:00,,0824.4,4.99,0.00,29.2,28.0,00.0,38.3,31.1,20.5,0000.8,0014.72,0004.99,0004.46
2021-08-28 03:48:00,,0824.2,5.00,0.00,29.3,28.2,00.0,38.3,31.1,20.1,0001.0,0015.03,0005.00,0004.45
2021-08-28 03:49:00,,0824.2,5.01,0.00,29.3,28.4,00.0,38.3,31.2,19.4,0000.9,0014.97,0004.97,0004.44
2021-08-28 03:50:00,,0824.3,5.00,0.00,29.3,28.5,00.0,38.3,31.2,19.4,0001.1,0014.73,0004.98,0004.44
2021-08-28 03:51:00,,0824.2,5.00,0.00,29.4,28.6,00.0,38.3,31.3,19.1,0001.2,0013.61,0004.97,0004.43
2021-08-28 03:52:00,,0824.3,5.00,0.00,29.4,28.7,00.0,38.4,31.3,19.1,0001.4,0013.29,0004.95,0004.42
2021-08-28 03:53:00,,0824.2,5.00,0.00,29.5,28.7,00.0,38.4,31.4,19.4,0001.4,0013.26,0004.96,0004.40
2021-08-28 03:54:00,,0824.2,5.00,0.00,29.5,27.5,00.0,38.4,31.0,18.5,0001.8,0013.99,0004.98,0004.39
2021-08-28 03:55:00,,0824.1,4.98,0.00,29.3,25.6,00.0,38.4,30.5,18.6,0001.8,0013.99,0004.97,0004.38
2021-08-28 03:56:00,,0824.1,5.01,0.00,29.1,25.5,00.0,38.3,30.5,18.7,0002.0,0013.86,0004.98,0004.36
2021-08-28 03:57:00,,0824.1,5.01,0.00,29.1,25.9,00.0,38.3,30.6,18.9,0002.2,0013.63,0004.97,0004.35
2021-08-28 03:58:00,,0824.1,5.00,0.00,29.0,26.4,00.0,38.3,30.7,18.9,0002.4,0012.70,0004.94,0004.33
2021-08-28 03:59:00,,0824.1,5.01,0.00,29.1,26.9,00.0,38.3,30.8,19.2,0002.3,0011.37,0004.90,0004.31
